CAPE
0 0 0 3 4 0 0 0 0 0 0 0 0 0 0 0 0 0 0 0 2 57 67 6 0 0 0 0 0 0 0 0 0 0 0 0 0 0 0 0 0 0 0 0
0 0 0 0 0 0 0 0 0 0 0 0 0 0 0 0 0 0 0 0 0 0 0 0 0 0 0 0 0 0 0 0 0 0 0 0 0 0 0 0 0 0 0 0
0 0 0 0 0 0 0 0 0 0 0 0 0 0 0 0 0 0 0 0 0 0 0 0 0 0 0 0 0 0 0 0 0 0 0 0 0 0 0 0 1 4 0 0
0 0 0 0 0 0 0 0 0 0 0 0 0 0 0 0 0 0 0 0 0 0 0 0 0 0 0 0 0 0 0 0 0 0 0 0 0 0 0 0 0 0 0 0
0 0 0 0 0 0 0 0 0 0 0 0 0 0 0 0 0 0 0 0 0 0 0 0 0 0 0 0 0 0 0 0 0 0 0 0 0 0 0 0 0 0 0 0
0 0 0 0 0 0 0 0 0 0 0 0 0 0 0 0 0 0 0 0 0 0 0 0 0 0 0 0 0 0 0 0 0 0 0 0 0 0 0 0 0 0 0 0
0 0 0 0 0 0 0 0 0 0 0 0 0 0 0 0 0 0 0 0 0 0 0 0 0 0 0 0 0 0 0 0 0 0 0 0 0 0 0 0 0 0 0 0
0 0 0 0 0 0 0 0 0 0 0 0 0 0 0 0 0 0 0 0 0 0 0 0 0 0 0 0 0 0 0 0 0 0 0 0 0 0 0 0 0 0 0 0
0 0 0 0 0 0 0 0 0 0 0 0 0 0 0 0 0 0 0 0 0 0 0 0 0 0 0 0 0 0 0 0 0 0 0 0 0 0 0 0 0 0 0 0
0 0 0 0 0 0 0 0 0 0 0 0 0 0 0 0 0 0 0 0 0 0 0 0 0 0 0 0 0 0 0 0 0 0 0 0 0 0 0 0 0 0 0 0
0 0 0 0 0 0 0 0 0 0 0 0 0 0 0 0 0 0 0 0 0 0 0 0 0 0 0 0 0 0 0 0 0 0 0 0 0 0 0 0 0 0 0 0
0 0 0 0 0 0 0 0 0 0 0 0 0 0 0 0 0 0 0 0 0 0 0 0 0 0 0 0 0 0 0 0 0 0 0 0 0 0 0 0 0 0 0 0
0 0 0 0 0 0 0 0 0 0 0 0 0 0 0 0 0 0 0 0 0 0 0 0 0 0 0 0 0 0 0 0 0 0 0 0 0 0 0 0 0 0 0 0
0 0 0 0 0 0 0 0 0 0 0 0 0 0 0 0 0 0 0 0 0 0 0 0 0 0 0 0 0 0 0 0 0 0 0 0 0 0 0 2 1 1 3 4
0 0 0 0 0 0 0 0 0 0 0 0 0 0 0 0 0 0 0 0 0 0 0 0 0 0 0 0 0 0 0 0 0 0 0 0 0 0 0 0 0 0 0 0
0 0 0 0 0 0 0 0 0 0 0 0 0 0 0 0 0 0 0 1 0 0 0 0 0 0 0 0 0 0 0 0 0 0 0 0 0 0 0 0 0 0 1 0
0 0 0 0 0 0 0 0 0 0 0 0 0 0 0 0 0 0 0 0 0 0 0 0 0 0 0 0 0 0 0 0 0 0 0 0 0 0 0 0 0 0 0 0
0 0 0 0 0 0 0 0 0 0 0 0 0 0 0 0 0 0 0 0 0 0 0 0 0 0 0 0 0 0 0 0 0 0 0 0 0 0 0 0 0 1 0 0
0 0 0 0 0 0 0 0 0 0 0 0 0 0 0 0 0 0 0 0 0 0 1 0 0 0 0 0 0 0 0 0 0 0 0 0 0 0 0 0 0 0 0 0
0 0 0 0 0 0 0 0 0 0 0 0 0 0 0 0 0 0 0 0 0 0 0 0 0 0 0 0 0 0 0 0 0 0 0 0 0 0 0 0 0 0 0 0
0 0 0 0 0 0 0 0 0 0 0 0 0 0 0 0 0 0 0 0 0 0 0 0 0 0 0 0 0 0 0 0 0 0 0 0 0 0 0 0 0 0 0 0
0 0 0 0 0 0 0 0 0 0 0 0 0 0 0 0 0 0 0 0 0 0 0 0 0 0 0 0 0 0 0 0 0 0 0 0 0 0 0 0 0 0 0 0
1 0 0 0 0 0 0 0 0 0 0 0 0 0 0 0 0 0 0 0 0 0 0 0 0 0 0 0 0 0 0 0 0 0 0 0 0 0 0 0 0 0 0 0
0 0 0 0 0 0 0 0 0 0 0 0 0 0 0 0 0 0 0 0 0 0 0 0 0 0 0 0 0 0 0 0 0 0 0 0 0 0 0 0 0 0 0 0
0 0 0 0 0 0 0 0 0 0 0 0 0 0 0 0 0 0 0 0 0 0 0 0 0 0 0 0 0 0 0 0 0 0 0 0 0 0 0 0 0 0 0 0
0 0 0 0 0 0 0 0 0 0 0 0 0 0 0 0 0 0 0 0 0 0 0 0 0 0 0 0 0 0 0 0 0 0 0 0 0 0 0 0 0 0 0 0
1 0 0 0 0 0 0 0 0 0 0 0 0 0 0 0 0 0 0 0 0 0 0 0 0 0 0 0 0 0 0 0 0 0 0 0 0 0 0 0 0 0 0 0
CIN
0 0 0 -20 -25 -9 0 0 0 0 0 0 0 0 0 0 0 0 0 0 -59 -185 -204 -201 0 0 0 0 0 0 0 0 0 0 0 0 0 0 0 0 0 0 0 0
0 0 0 0 0 0 0 0 0 0 0 0 0 0 0 0 0 0 0 0 0 0 0 0 0 0 0 0 0 0 0 0 0 0 0 0 0 0 0 0 0 0 0 0
0 0 0 0 0 0 0 0 0 0 0 0 0 0 0 0 0 0 0 0 0 0 0 0 0 0 0 0 0 0 0 0 0 0 0 0 0 0 0 0 -14 -8 0 0
0 0 0 0 0 0 0 0 0 0 0 0 0 0 0 0 0 0 0 0 0 0 0 0 0 0 0 0 0 0 0 0 0 0 0 0 0 0 0 0 0 0 0 0
0 0 0 0 0 0 0 0 0 0 0 0 0 0 0 0 0 0 0 0 0 0 0 0 0 0 0 0 0 0 0 0 0 0 0 0 0 0 0 0 0 0 0 0
0 0 0 0 0 0 0 0 0 0 0 0 0 0 0 0 0 0 0 0 0 0 0 0 0 0 0 0 0 0 0 0 0 0 0 0 0 0 0 0 0 0 0 0
0 0 0 0 0 0 0 0 0 0 0 0 0 0 0 0 0 0 0 0 0 0 0 0 0 0 0 0 0 0 0 0 0 0 0 0 0 0 0 0 0 0 0 0
0 0 0 0 0 0 0 0 0 0 0 0 0 0 0 0 0 0 0 0 0 0 0 0 0 0 0 0 0 0 0 0 -1 0 0 0 0 0 0 0 0 0 0 0
0 0 0 0 0 0 0 0 0 0 0 0 0 0 0 0 0 0 0 0 0 0 0 0 0 0 0 0 0 0 0 0 0 0 0 0 0 0 0 0 0 0 0 0
0 0 0 0 0 0 0 0 0 0 0 0 0 0 0 0 0 0 0 0 0 0 0 0 0 0 0 0 0 0 0 0 0 0 0 0 0 0 0 0 0 0 0 0
0 0 0 0 0 0 0 0 0 0 0 0 0 0 0 0 0 0 0 0 0 0 0 0 0 0 0 0 0 0 0 0 0 0 0 0 0 0 0 0 0 0 0 0
0 0 0 0 0 0 0 0 0 0 0 0 0 0 0 0 0 0 0 0 0 0 0 0 0 0 0 0 0 0 0 0 0 0 0 0 0 0 0 0 0 0 0 0
0 0 0 0 0 0 0 0 0 0 0 0 0 0 0 0 0 0 0 0 0 0 0 0 0 0 0 0 0 0 0 0 0 0 0 0 0 0 0 0 0 0 0 0
0 0 0 0 0 0 0 0 0 0 0 0 0 0 0 0 0 0 0 0 0 0 0 0 0 0 0 0 0 0 0 0 0 0 0 0 0 0 0 0 0 0 -1 -1
0 0 0 0 0 0 0 0 0 0 0 0 0 0 0 0 0 0 0 0 0 0 0 0 0 0 0 0 0 0 0 0 0 0 0 0 0 0 0 0 0 0 0 0
0 0 0 0 0 0 0 0 0 0 0 0 0 0 0 0 0 0 0 0 0 0 0 0 0 0 0 0 0 0 0 0 0 0 0 0 0 0 0 0 0 0 0 -1
0 0 0 0 0 0 0 0 0 0 0 0 0 0 0 0 0 0 0 0 0 0 0 0 0 0 0 0 0 0 0 0 0 0 0 0 0 0 0 0 0 0 0 0
0 0 0 0 0 0 0 0 0 0 0 0 0 0 0 0 0 0 0 0 0 0 0 0 0 0 0 0 0 0 0 0 0 0 0 0 0 0 0 0 0 0 0 0
0 0 0 0 0 0 0 0 0 0 0 0 0 0 0 0 0 0 0 0 0 0 0 0 0 0 0 0 0 0 0 0 0 0 0 0 0 0 0 0 0 0 0 0
0 0 0 0 0 0 0 0 0 0 0 0 0 0 0 0 0 0 0 0 0 0 0 0 0 0 0 0 0 0 0 0 0 0 0 0 0 0 0 0 0 0 0 0
0 0 0 0 0 0 0 0 0 0 0 0 0 0 0 0 0 0 0 0 0 0 0 0 0 0 0 0 0 0 0 0 0 0 0 0 0 0 0 0 0 0 0 0
0 0 0 0 0 0 0 0 0 0 0 0 0 0 0 0 0 0 0 0 0 0 0 0 0 0 0 0 0 0 0 0 0 0 0 0 0 0 0 0 0 0 0 0
0 0 0 0 0 0 0 0 0 0 0 0 0 0 0 0 0 0 0 0 0 0 0 0 0 0 0 0 0 0 0 0 0 0 0 0 0 0 0 0 0 0 0 0
0 0 0 0 0 0 0 0 0 0 0 0 0 0 0 0 0 0 0 0 0 0 0 0 0 0 0 0 0 0 0 0 0 0 0 0 0 0 0 0 0 0 0 0
0 0 0 0 0 0 0 0 0 0 0 0 0 0 0 0 0 0 0 0 0 0 0 0 0 0 0 0 0 0 0 0 0 0 0 0 0 0 0 0 0 0 0 0
0 0 0 0 0 0 0 0 0 0 0 0 0 0 0 0 0 0 0 0 0 0 0 0 0 0 0 0 0 0 0 0 0 0 0 0 0 0 0 0 0 0 0 0
0 0 0 0 0 0 0 0 0 0 0 0 0 0 0 0 0 0 0 0 0 0 0 0 0 0 0 0 0 0 0 0 0 0 0 0 0 0 0 0 0 0 0 0
Wind_Speed
23 21 20 23 22 15 9 20 25 31 18 18 23 21 24 11 16 19 18 15 14 13 13 14 17 16 14 13 13 13 13 14 13 12 13 14 14 14 14 15 15 18 21 27
17 18 21 24 23 21 23 29 29 25 21 18 19 16 17 13 13 15 17 18 18 17 16 14 14 14 14 15 15 13 14 14 13 13 14 14 14 14 15 17 19 20 27 28
20 22 26 32 20 28 32 27 24 20 19 13 14 15 14 12 12 14 16 19 22 23 23 21 17 15 13 13 12 11 12 12 12 13 14 13 13 14 16 18 23 30 29 31
25 22 28 27 24 27 31 32 24 20 15 14 11 11 12 13 12 14 17 20 22 24 26 26 24 21 20 16 14 13 14 14 14 14 13 12 12 14 18 23 27 29 32 33
22 20 29 23 18 17 18 21 15 7 5 6 7 10 15 17 17 18 20 22 24 26 28 29 28 23 20 19 17 16 15 14 13 11 11 14 17 19 26 27 29 32 30 30
19 27 28 24 19 17 13 17 10 5 3 3 10 16 17 16 16 19 21 23 24 26 27 27 27 24 22 20 18 16 14 13 12 13 15 19 21 25 27 28 30 28 30 30
20 24 26 17 14 11 14 16 4 4 3 6 13 16 12 13 16 18 20 22 23 24 25 26 25 23 22 20 19 15 14 14 16 19 21 23 25 25 27 27 27 29 32 31
20 23 28 14 10 14 16 9 1 4 7 10 9 10 11 13 16 18 20 21 22 23 24 25 23 21 20 19 16 16 17 19 22 23 23 23 24 24 25 27 30 32 33 33
12 15 15 10 13 10 3 1 3 3 4 5 7 9 10 13 15 17 18 19 20 22 23 23 23 21 21 19 19 20 22 24 23 23 22 22 25 27 29 30 31 33 33 33
12 12 11 10 10 5 4 4 4 5 3 5 8 9 10 13 15 16 18 19 20 21 22 22 22 22 21 22 23 24 25 26 26 27 27 27 28 29 31 32 34 33 33 33
14 14 11 13 10 6 6 7 6 8 8 7 8 10 11 13 15 16 17 19 20 21 21 22 22 23 24 24 25 26 27 29 29 29 30 32 32 33 33 32 32 34 33 32
17 10 12 10 9 7 6 8 8 7 10 11 10 11 12 14 15 15 17 18 20 21 21 21 22 24 26 27 28 29 31 32 33 34 35 36 38 39 34 34 34 33 33 31
17 10 14 8 9 9 8 8 9 9 10 10 11 11 12 13 15 16 18 19 20 20 21 22 23 26 28 29 30 32 33 34 35 37 38 40 41 41 45 42 37 37 35 35
9 8 13 11 11 8 7 7 9 10 11 11 11 12 13 15 16 17 19 18 19 20 22 23 25 29 30 31 32 34 35 37 38 39 41 42 43 43 43 43 45 46 42 40
15 17 12 6 5 6 6 6 8 10 11 12 12 13 14 15 16 18 18 18 19 21 23 25 28 30 31 33 35 36 38 39 40 41 41 42 43 43 42 43 44 45 47 47
11 9 7 7 7 7 7 8 9 10 11 12 13 14 14 15 16 17 18 17 19 23 25 27 29 31 33 35 36 37 38 39 41 41 42 43 43 43 44 44 46 46 46 46
10 13 9 9 8 8 8 9 9 10 11 12 13 13 14 15 16 17 17 19 21 23 26 29 31 33 34 36 37 38 40 41 42 42 43 43 43 44 45 45 44 45 45 44
13 9 8 6 6 7 8 9 9 10 11 12 11 12 13 15 15 16 17 19 23 26 28 30 33 34 35 37 38 39 39 42 42 42 42 43 43 43 43 43 43 43 43 43
8 7 7 6 6 7 8 9 10 10 10 10 11 13 14 15 15 17 19 23 26 28 30 31 33 35 36 37 38 38 39 42 42 42 42 43 43 43 42 42 42 41 41 41
7 6 5 7 7 7 7 8 8 10 10 10 12 13 16 16 17 19 22 25 28 28 29 32 33 35 36 36 37 39 39 41 42 43 43 44 43 42 41 40 40 40 40 40
6 6 6 6 7 7 8 8 8 10 10 11 13 15 16 17 19 21 24 27 28 29 29 32 33 34 35 36 36 38 39 40 42 44 43 43 41 39 40 39 39 39 39 39
5 5 5 6 6 7 9 9 10 10 11 13 14 15 17 20 21 24 25 27 28 29 30 31 32 33 34 35 36 37 39 40 40 41 41 41 40 38 39 39 39 39 38 38
5 6 5 6 7 8 9 10 11 11 13 14 16 18 20 21 23 26 29 28 28 29 30 31 31 33 34 34 36 37 38 40 39 38 38 38 37 37 37 38 37 37 37 38
6 6 7 8 8 9 10 11 12 14 15 17 17 19 21 23 26 26 26 27 29 29 30 30 31 32 33 34 35 36 37 38 37 35 36 36 36 36 37 36 36 36 35 35
7 8 8 9 11 12 13 13 14 16 18 20 21 22 23 24 27 25 27 28 29 29 30 30 31 33 34 34 34 35 36 36 34 33 34 35 36 37 36 34 34 35 33 32
9 11 12 13 14 15 15 16 18 19 21 23 24 23 24 24 25 27 28 29 29 29 29 29 31 33 35 34 34 33 33 33 32 32 33 34 36 36 36 33 33 33 31 30
13 13 14 16 17 18 19 20 21 22 23 24 26 24 24 25 26 27 29 30 30 30 29 30 31 33 34 34 34 31 30 30 30 31 32 33 35 35 35 33 31 31 30 29
Wind_Direction
280 285 286 285 286 294 292 294 290 291 309 309 306 312 302 319 310 309 318 322 316 306 305 306 304 305 299 289 284 283 280 274 272 278 288 294 295 300 308 315 321 329 332 331
283 291 290 287 284 289 290 283 288 302 311 322 315 320 318 317 325 327 328 331 333 333 328 321 312 306 302 295 286 282 280 275 281 286 297 299 306 312 319 323 327 333 331 328
283 290 292 282 283 282 280 287 293 297 306 317 316 319 328 338 337 335 336 334 331 332 336 339 339 331 317 308 299 282 279 286 291 298 305 311 318 325 328 326 326 327 328 327
285 294 267 290 295 290 283 285 287 296 303 303 308 318 331 339 348 346 342 337 337 338 338 338 337 336 334 331 324 318 315 315 316 315 317 320 322 325 330 328 319 323 324 323
288 291 295 298 303 303 296 296 300 301 316 320 329 329 322 329 335 333 333 337 338 338 338 340 340 341 340 337 336 331 327 326 326 325 328 330 326 319 326 322 321 323 325 326
295 290 290 297 296 300 305 295 304 309 317 330 317 308 314 327 334 337 340 340 340 342 344 346 348 349 346 344 343 340 341 342 346 341 328 330 324 320 321 320 321 323 325 325
289 291 293 303 310 315 280 299 269 285 307 316 312 318 334 340 339 343 344 344 346 347 348 350 353 355 353 354 353 358 360 354 343 336 329 325 324 321 321 322 323 324 325 326
292 289 289 307 305 292 304 306 274 299 307 318 338 348 347 345 344 345 346 349 352 354 354 353 356 360 2 2 7 3 353 343 336 332 328 327 326 326 325 324 322 322 323 325
292 303 314 322 311 307 349 31 314 327 345 6 2 348 350 348 349 351 353 358 360 0 1 2 3 5 3 2 357 349 344 341 339 338 337 335 330 327 324 323 322 320 322 322
299 308 315 310 315 341 343 360 357 344 12 1 355 353 356 356 354 355 356 357 0 1 359 359 1 2 1 356 352 348 344 342 342 339 337 335 331 328 324 322 322 321 321 321
293 304 304 301 302 316 325 336 344 344 343 350 358 352 354 355 354 355 356 357 360 358 358 358 0 359 356 353 351 347 344 341 339 338 336 333 331 328 325 323 321 320 319 318
286 284 295 296 300 309 313 320 331 338 341 346 349 351 354 352 355 358 357 357 358 359 360 359 358 356 354 351 349 344 341 340 339 337 335 333 330 327 326 323 321 319 316 313
288 292 296 305 311 313 316 326 336 342 347 348 351 355 355 356 355 358 357 357 358 0 359 357 355 353 351 350 349 345 343 341 339 337 335 333 331 328 325 325 323 320 317 314
287 295 300 298 297 313 328 339 347 351 351 352 354 357 358 356 355 355 355 358 0 358 356 354 352 349 349 348 346 344 341 339 337 335 334 332 331 329 328 326 324 323 322 319
286 294 293 302 310 316 330 339 339 341 347 350 351 352 353 352 352 352 354 356 357 356 353 351 348 347 349 346 344 342 340 338 337 336 335 334 333 332 331 329 327 324 323 321
289 300 298 289 292 302 311 320 327 332 337 340 344 347 350 352 351 352 354 353 351 349 349 348 347 346 346 344 343 342 341 340 338 337 337 337 336 335 333 332 331 330 328 325
276 284 288 289 288 297 306 317 323 328 333 337 341 346 350 352 352 352 354 356 353 349 348 347 345 345 344 345 344 342 341 341 340 340 339 339 338 336 335 333 332 331 331 332
286 285 285 287 287 297 310 319 325 329 332 338 345 349 349 348 349 350 351 350 347 346 346 345 344 344 344 345 344 344 343 342 342 341 341 340 339 338 337 337 336 335 334 335
292 291 295 301 307 310 313 319 326 335 345 350 351 350 352 353 352 351 349 344 341 340 340 342 343 344 344 345 345 344 344 344 344 343 342 341 340 340 340 340 339 338 337 336
308 309 309 319 321 323 326 335 344 347 352 354 353 351 348 348 348 345 343 342 342 341 342 342 343 343 345 345 346 346 345 345 344 343 342 341 340 340 340 340 341 341 340 338
308 313 322 331 335 337 336 347 352 348 350 351 348 346 346 347 344 342 339 338 339 341 342 342 343 344 345 346 346 346 346 345 344 343 343 343 343 343 342 341 342 341 340 340
331 336 345 343 342 352 354 356 358 357 353 350 348 346 344 341 342 341 341 338 339 341 341 342 343 344 345 346 346 347 347 346 345 345 346 346 346 346 344 344 343 343 342 341
341 347 355 354 348 348 353 353 353 350 347 344 341 339 339 339 338 336 333 338 340 341 341 342 343 344 345 346 346 347 347 346 346 347 348 349 349 347 347 346 347 346 344 342
349 341 341 346 350 345 339 340 343 343 342 341 341 340 338 336 336 338 339 339 340 340 341 342 343 343 345 345 346 346 346 347 348 349 350 351 350 349 348 349 350 349 348 348
342 343 344 340 334 333 335 336 336 336 336 336 335 335 335 335 333 336 338 338 339 339 340 342 343 344 344 344 344 344 346 347 349 349 351 351 349 348 349 351 351 351 353 354
336 334 335 335 332 331 331 330 328 329 330 329 330 332 334 337 338 338 338 339 339 340 340 341 342 343 343 344 343 344 345 347 348 350 351 351 349 348 349 351 351 353 355 357
337 335 333 333 333 332 330 328 326 325 327 327 326 330 333 335 336 337 337 338 339 339 339 340 340 342 343 343 343 344 345 347 348 350 351 351 349 348 349 350 352 353 354 356